DW9608 Weather Reports


time (UTC)temp
F
wind
direction
speed
knots
gust
knots
rain 1hr
in
rain 24hr
in
rain mn
in
humidity
%
barometer
mb
20260503223751 59 99 1.7 4.3 0.00 0.00 0.00 44 1014.6
20260503222720 59 135 0.9 1.7 0.00 0.00 0.00 45 1014.8
20260503221655 60 113 0.9 1.7 0.00 0.00 0.00 45 1014.8
20260503220618 60 135 1.7 1.7 0.00 0.00 0.00 44 1014.8
20260503215600 60 113 1.7 3.5 0.00 0.00 0.00 42 1014.8
20260503214530 59 135 0.9 1.7 0.00 0.00 0.00 46 1014.6
20260503213501 60 135 0.9 1.7 0.00 0.00 0.00 45 1014.8
20260503212417 60 124 2.6 3.5 0.00 0.00 0.00 43 1014.8
20260503211402 59 158 1.7 2.6 0.00 0.00 0.00 47 1014.9
20260503210331 60 113 1.7 2.6 0.00 0.00 0.00 46 1014.8
20260503205258 62 135 0.9 1.7 0.00 0.00 0.00 44 1014.8
20260503204215 61 135 1.7 1.7 0.00 0.00 0.00 39 1014.9
20260503203211 60 113 3.5 7.8 0.00 0.00 0.00 42 1014.9
20260503202122 63 123 1.7 2.6 0.00 0.00 0.00 43 1014.9
20260503201047 61 113 1.7 2.6 0.00 0.00 0.00 43 1015.3
20260503200023 62 128 1.7 1.7 0.00 0.00 0.00 45 1015.5
20260503195013 62 113 3.5 4.3 0.00 0.00 0.00 44 1015.5
20260503193933 60 158 2.6 2.6 0.00 0.00 0.00 42 1015.8
20260503192855 61 158 1.7 2.6 0.00 0.00 0.00 43 1016.0
20260503191820 61 135 3.5 4.3 0.00 0.00 0.00 44 1016.0
20260503190748 61 113 0.9 1.7 0.00 0.00 0.00 40 1016.1
20260503185726 61 189 2.6 4.3 0.00 0.00 0.00 45 1016.2
20260503184654 62 158 3.5 4.3 0.00 0.00 0.00 42 1016.4
20260503183617 61 158 1.7 2.6 0.00 0.00 0.00 43 1016.7
20260503182620 64 135 2.6 4.3 0.00 0.00 0.00 43 1016.7
20260503181516 62 113 1.7 2.6 0.00 0.00 0.00 47 1016.8
20260503180607 62 227 2.6 3.5 0.00 0.00 0.00 39 1017.0
20260503175421 62 113 1.7 2.6 0.00 0.00 0.00 45 1017.1
20260503174353 62 260 2.6 4.3 0.00 0.00 0.00 43 1017.1
20260503173333 61 113 1.7 1.7 0.00 0.00 0.00 44 1017.2
20260503172249 61 158 1.7 1.7 0.00 0.00 0.00 49 1017.5
20260503171225 61 113 2.6 3.5 0.00 0.00 0.00 50 1017.5
20260503170150 59 195 1.7 2.6 0.00 0.00 0.00 44 1017.7
20260503150616 56 158 1.7 1.7 0.00 0.00 0.00 50 1018.5
20260503131056 50 158 0.9 0.9 0.00 0.01 0.00 52 1019.1
20260503110449 32 0.0 0.0 0.00 0.05 0.00 91 1018.9
20260503100157 31 0.0 0.0 0.00 0.05 0.00 91 1018.5
20260503080619 32 0.0 0.0 0.00 0.16 0.00 90 1018.7
20260503072420 32 0.0 0.0 0.00 0.16 0.00 90 1018.7
20260503071401 32 0.0 0.0 0.00 0.16 0.00 89 1018.7
20260503070317 32 0.0 0.0 0.00 0.16 0.00 89 1018.6
20260503054950 33 0.0 0.0 0.00 0.17 0.00 86 1019.0
20260503053925 33 0.0 0.0 0.00 0.17 0.00 86 1019.0
20260503052855 33 0.0 0.0 0.00 0.17 0.00 85 1019.0
20260503051851 34 0.0 0.0 0.00 0.17 0.00 84 1019.1
20260503050749 34 0.0 0.0 0.00 0.17 0.00 82 1019.1
20260503045732 35 0.0 0.0 0.00 0.17 0.00 82 1019.1
20260503044653 35 0.0 0.0 0.00 0.18 0.00 81 1019.2
20260503043628 36 0.0 0.0 0.00 0.18 0.00 80 1019.1
20260503042559 0 0.0 0.0 0.00 0.18 0.00 1019.2
20260503041517 38 0.0 0.0 0.00 0.19 0.00 79 1019.2
20260503040452 39 0.0 0.0 0.00 0.21 0.00 78 1019.4
20260503035418 39 0.0 0.0 0.00 0.24 0.23 78 1019.4
20260503034354 39 0.0 0.0 0.00 0.24 0.23 78 1019.4
20260503033326 0 0.0 0.0 0.00 0.26 0.23 1019.4
20260503032251 39 0.0 0.0 0.00 0.29 0.23 78 1019.4
20260503031228 39 0.0 0.0 0.00 0.30 0.23 78 1019.4
20260503030229 39 0.0 0.0 0.00 0.30 0.23 78 1019.6
20260503025126 39 0.0 0.0 0.00 0.30 0.23 78 1019.6
20260503024056 39 0.0 0.0 0.00 0.30 0.23 78 1019.8
20260503023020 0 0.0 0.0 0.00 0.30 0.23 1019.8
20260503021949 40 0.0 0.0 0.00 0.30 0.23 78 1019.8
20260503020920 40 0.0 0.0 0.00 0.30 0.23 77 1019.8
20260503015856 40 0.0 0.0 0.00 0.30 0.23 77 1019.8
20260503014817 40 0.0 0.0 0.00 0.30 0.23 76 1019.6
20260503013748 40 0.0 0.0 0.00 0.30 0.23 76 1019.6
20260503012718 40 0.0 0.0 0.00 0.30 0.23 76 1019.6
20260503011654 0 0.0 0.0 0.00 0.30 0.23 1019.6
20260503010629 41 0.0 0.0 0.00 0.30 0.23 73 1019.6
20260503005553 41 0.0 0.0 0.00 0.30 0.23 72 1019.6
20260503004519 42 0.0 0.0 0.00 0.30 0.23 70 1019.6
20260503003450 42 0.0 0.0 0.00 0.30 0.23 65 1019.4
20260503002431 42 0.0 0.0 0.00 0.30 0.23 61 1019.4
20260503001411 43 0.0 0.0 0.00 0.30 0.23 61 1019.4
20260503000341 43 0.0 0.0 0.00 0.30 0.23 62 1019.4
20260502235245 44 0.0 0.0 0.00 0.30 0.23 59 1019.2
20260502234223 44 0.0 0.0 0.00 0.30 0.23 58 1019.2
20260502233146 44 0.0 0.0 0.00 0.30 0.23 55 1019.4
20260502232130 45 0.0 0.0 0.00 0.30 0.23 57 1019.4
20260502231102 45 0.0 0.0 0.00 0.30 0.23 55 1019.4
20260502230016 45 113 0.9 1.7 0.00 0.30 0.23 55 1019.4
20260502225043 46 0.0 0.0 0.00 0.30 0.23 55 1019.4